Jaffrey, NH

12:32 AM EDT on June 29, 2017 (GMT -0400)
Jaffrey Airport-Silver Ranch

Weather History for KAFN - October, 2012

Change the Weather History Date:

Friday, October 26, 2012

  Actual Average Record
Temperature  
Mean Temperature 55 °F -  
Max Temperature 64 °F 51 °F 71 °F (2000)
Min Temperature 46 °F 32 °F 25 °F (1997)
Degree Days  
Heating Degree Days 10    
Growing Degree Days 5 (Base 50)    
Moisture  
Dew Point 47 °F    
Average Humidity 76    
Maximum Humidity 86    
Minimum Humidity 63    
Precipitation  
Precipitation 0.00 in - - ()
Sea Level Pressure  
Sea Level Pressure 30.21 in    
Wind  
Wind Speed 4 mph (SSW)    
Max Wind Speed 9 mph    
Max Gust Speed -    
Visibility 9 miles    
Events      
Averages and records for this station are not official NWS values.
T = Trace of Precipitation, MM = Missing Value Source: NWS Daily Summary

Daily Weather History Graph

Daily Weather History Graph

Search for Another Location

Airport or City:

Trip Planner

Search our weather history database for the weather conditions in past years. The results will help you decide how hot, cold, wet, or windy it might be!

Date:

Astronomy

Oct. 26, 2012 Rise Set
Actual Time 7:15 AM EDT 5:47 PM EDT
Civil Twilight 6:46 AM EDT 6:17 PM EDT
Nautical Twilight 6:12 AM EDT 6:50 PM EDT
Astronomical Twilight 5:40 AM EDT 7:22 PM EDT
Moon 4:05 PM EDT (10/26) 4:04 AM EDT (10/26)
Length of Visible Light 11h 30m
Length of Day
10h 32m
Waxing Gibbous, 91% of the Moon is Illuminated
Oct 26
Waxing Gibbous
Oct 29
Full
Nov 6
Last Quarter
Nov 13
New
Nov 20
First Quarter

Hourly Weather History & Observations

Time (EDT) Temp. Windchill Dew Point Humidity Pressure Visibility Wind Dir Wind Speed Gust Speed Precip Events Conditions
12:20 AM 46.4 °F 45.2 °F 41.0 °F 81% 30.25 in 10.0 mi South 3.5 mph - N/A   Mostly Cloudy
2:52 AM 48.0 °F - 42.1 °F 80% 30.27 in 10.0 mi Calm Calm - N/A   Overcast
3:52 AM 50.0 °F - 42.1 °F 74% 30.26 in 10.0 mi South 4.6 mph - N/A   Overcast
4:52 AM 51.1 °F - 43.0 °F 74% 30.25 in 10.0 mi South 4.6 mph - N/A   Overcast
5:52 AM 51.1 °F - 44.1 °F 77% 30.25 in 10.0 mi South 4.6 mph - N/A   Overcast
6:52 AM 52.0 °F - 45.0 °F 77% 30.24 in 10.0 mi South 3.5 mph - N/A   Overcast
7:04 AM 51.8 °F - 44.6 °F 76% 30.21 in 10.0 mi South 4.6 mph - N/A   Overcast
7:52 AM 53.1 °F - 46.9 °F 80% 30.24 in 10.0 mi SSW 4.6 mph - N/A   Overcast
8:52 AM 54.0 °F - 48.0 °F 80% 30.25 in 10.0 mi SSW 8.1 mph - N/A   Overcast
9:52 AM 55.0 °F - 48.0 °F 77% 30.26 in 10.0 mi SSW 4.6 mph - N/A   Overcast
10:52 AM 55.9 °F - 48.9 °F 77% 30.26 in 10.0 mi SSW 6.9 mph - N/A   Overcast
11:52 AM 57.9 °F - 50.0 °F 75% 30.24 in 10.0 mi South 6.9 mph - N/A   Overcast
12:52 PM 60.1 °F - 50.0 °F 69% 30.23 in 10.0 mi South 6.9 mph - N/A   Overcast
1:27 PM 60.8 °F - 50.0 °F 68% 30.19 in 10.0 mi SW 6.9 mph - N/A   Overcast
1:52 PM 61.0 °F - 51.1 °F 70% 30.21 in 10.0 mi SSW 6.9 mph - N/A   Mostly Cloudy
2:04 PM 62.6 °F - 51.8 °F 68% 30.18 in 10.0 mi South 9.2 mph - N/A   Scattered Clouds
2:52 PM 63.0 °F - 51.1 °F 65% 30.18 in 10.0 mi South 6.9 mph - N/A   Clear
3:52 PM 64.0 °F - 51.1 °F 63% 30.17 in 10.0 mi WSW 5.8 mph - N/A   Clear
4:52 PM 63.0 °F - 51.1 °F 65% 30.16 in 10.0 mi SW 5.8 mph - N/A   Clear
5:52 PM 60.1 °F - 51.1 °F 72% 30.17 in 10.0 mi SSW 3.5 mph - N/A   Clear
6:52 PM 55.0 °F - 48.9 °F 80% 30.17 in 10.0 mi Calm Calm - N/A   Clear
7:52 PM 52.0 °F - 48.0 °F 86% 30.17 in 7.0 mi Calm Calm - N/A   Clear
8:52 PM 50.0 °F - 46.0 °F 86% 30.18 in 6.0 mi South 3.5 mph - N/A   Clear
9:52 PM 48.9 °F - 44.1 °F 83% 30.18 in 6.0 mi Calm Calm - N/A   Haze
10:52 PM 48.0 °F - 43.0 °F 83% 30.18 in 5.0 mi Calm Calm - N/A   Haze
11:52 PM 46.9 °F - 43.0 °F 86% 30.17 in 6.0 mi Calm Calm - N/A   Clear